Location: Passo di Treia
(43.2833°N, 13.3333°E)
Time: 23:25:13
(UTC+00:00)

Cosmos 2322 Rocket - Pass Details

Date: 09 December 2019
Orbit: 831 x 852 km, 71.0° (Epoch: 18 January)

Event Time Altitude Azimuth Distance (km) Brightness Sun altitude
Rises 16:07:13 0° 256° (WSW) 3,375 7.5 -6.7°
Reaches altitude 10° 16:10:38 10° 277° (W) 2,448 5.6 -7.2°
Maximum altitude 16:14:04 16° 315° (NW) 2,046 4.5 -7.8°
Drops below altitude 10° 16:17:31 10° 353° (N) 2,463 4.5 -8.4°
Sets 16:20:59 0° 14° (NNE) 3,407 5.0 -8.9°
